Theta_e
354 350 350 351 349 350 350 352 361 363 362 361 362 362 363 358 357 361 356 358 358 353
355 354 350 354 353 349 354 355 362 363 362 359 361 361 363 356 358 360 359 361 364 356
355 356 355 355 354 353 351 358 361 361 360 362 360 363 364 358 361 359 356 355 362 361
354 354 355 353 354 355 355 355 361 360 362 360 360 362 361 361 358 358 358 358 360 360
354 355 353 353 353 354 354 356 356 362 362 361 360 362 361 359 356 357 357 357 358 358
352 353 352 353 355 355 356 356 354 356 359 359 359 358 359 360 359 357 356 357 356 356
354 355 353 355 356 356 358 357 357 357 357 357 357 356 357 358 359 359 357 358 358 358
356 357 357 357 357 358 357 357 359 359 358 358 357 352 357 358 357 358 358 357 359 358
357 357 357 358 358 358 357 358 359 358 357 357 355 341 340 351 357 359 358 357 358 359
358 358 358 359 359 359 357 358 357 358 359 360 360 336 336 341 353 356 359 359 357 355
358 358 360 361 360 361 360 359 359 358 359 359 358 335 332 337 354 357 359 359 358 358
355 356 354 352 353 355 355 357 357 358 358 358 358 330 329 337 352 353 358 361 361 359
349 349 348 349 351 353 351 350 351 352 355 347 356 332 326 334 349 353 354 362 359 337
346 343 343 345 347 345 343 349 349 347 350 355 352 353 323 323 347 346 346 358 359 354
Wind_Speed
12 9 9 9 8 6 5 5 2 6 6 7 6 5 5 6 6 5 4 7 7 5
12 13 10 10 8 8 8 6 6 6 6 6 7 7 5 6 5 5 5 6 6 7
14 13 13 11 12 11 9 8 7 7 7 7 8 7 8 6 5 7 6 7 4 6
13 14 13 13 13 12 11 10 9 9 8 8 8 7 7 8 8 8 8 8 5 7
13 13 14 14 14 13 12 12 12 11 10 9 9 9 9 10 10 11 10 9 10 7
13 13 14 14 13 13 13 13 13 12 12 12 11 10 10 10 10 11 11 9 10 8
13 13 14 13 13 13 13 13 13 13 13 13 12 12 11 11 10 11 11 10 10 9
11 12 12 12 12 12 12 12 13 13 13 14 13 11 13 12 12 11 12 11 10 10
10 10 11 11 12 12 13 13 12 13 14 15 12 12 11 12 12 12 12 11 10 10
9 9 10 10 10 11 13 13 14 14 14 14 13 11 13 14 12 12 12 12 11 10
8 8 8 9 10 10 10 12 13 13 15 14 13 9 11 10 14 11 13 13 14 13
5 5 6 8 9 9 9 10 9 10 11 14 13 9 10 11 13 15 15 12 14 14
4 5 6 7 7 6 7 8 8 10 9 11 13 10 14 13 11 12 10 11 12 12
2 5 7 9 9 7 8 9 8 9 9 11 10 10 14 15 13 11 12 8 9 12
Wind_Direction
213 216 216 212 243 237 247 240 214 244 216 220 224 220 212 218 229 208 235 249 257 272
206 227 222 228 217 229 244 256 235 238 203 221 223 221 213 244 227 238 234 242 224 252
210 214 224 225 227 242 247 246 248 256 246 221 226 221 219 252 230 242 234 232 193 246
212 215 221 229 227 233 235 238 235 235 240 252 239 220 229 225 233 235 245 250 249 249
214 221 224 227 232 232 232 230 235 234 238 236 249 251 241 239 248 216 232 237 243 243
213 218 225 228 229 231 229 232 232 230 234 235 239 246 245 240 234 229 230 241 238 239
214 218 226 228 228 228 228 230 230 230 231 234 236 235 235 230 237 240 236 227 235 239
221 226 229 235 235 234 232 231 231 231 228 230 227 227 222 229 230 234 238 233 227 229
215 223 228 232 238 239 235 232 236 233 233 232 230 211 217 224 221 227 233 234 231 237
203 211 224 231 233 235 236 238 235 237 238 240 237 211 207 210 232 231 225 230 229 235
199 211 220 231 239 242 239 239 239 240 241 248 241 198 208 208 228 239 246 233 228 231
180 217 230 241 249 255 251 247 238 243 244 245 246 175 199 199 232 236 234 238 237 238
207 251 261 263 266 264 254 258 269 262 249 237 247 213 197 211 231 233 241 223 234 222
309 295 281 284 274 274 279 274 255 251 257 256 253 245 188 203 237 253 242 234 239 231